MET'MAP v2.0
soon released !

Expected late october,
this new version will be
more efficient, smarter,
and hosted on a brand new
server x3 powerfull...
...and still free !


Not compatible ?
Try the mobile version !

LOG IN : | Subscribe | Disclaimer | Who is Orbifly ? |
ICAO code :

TAF - LFSX Luxeuil - 18 Jan 2020 10:48 UTC
Data Sources :     NOAA   


- Airport Elevation : 913 ft
- No reported NOTAMs.


LFSX - Luxeuil

Latest METAR recorded : 2020/01/18 09:30 LFSX 180930Z AUTO 24009KT 9999 SCT010 BKN024 OVC045 04/03 Q1029
NO TAF


MET'MAP, your aeronautical weather chart ! - Copyright ORBIFLY December 2007

Programming & Development : Alexandra Zaïnal
Co-Developer : Marc-Olivier Méhu
Technical & hardware support : Manuel Goepfert
Concept & Financing : Baudouin d'Aumeries